User: anonymous   Login
Location: Arbon
(43.0005°N, 0.7472°E)
Time: 20:17:08
(UTC+00:00)
Language:

Cosmos 1125 Rocket - Orbit

View from above orbital plane
View from above orbital plane
View from above satellite
View from above satellite

Ground track
Ground track

The orbit data is extracted from the following two-line orbital elements,

1 11511U 79078B   20304.21080898 +.00000032 +00000-0 +19813-4 0  9996
2 11511 074.0374 212.4299 0015233 159.9052 200.2704 14.36901068155420
Epoch (UTC): 30 October 2020 05:03:33
Eccentricity: 0.0015233
inclination: 74.0374°
perigee height: 758 km
apogee height: 779 km
right ascension of ascending node: 212.4299°
argument of perigee: 159.9052°
revolutions per day: 14.36901068
mean anomaly at epoch: 200.2704°
orbit number at epoch: 15542

The dashed part of the orbit path shows where the satellite is in the earth's shadow,  

DLR